Year,Month,Day,Hour,Minute,Value (Times are PST for temperature in C)
2013,09,20,00,00,12.60
2013,09,20,00,01,12.50
2013,09,20,00,02,12.50
2013,09,20,00,03,12.50
2013,09,20,00,04,12.40
2013,09,20,00,05,12.40
2013,09,20,00,06,12.40
2013,09,20,00,07,12.40
2013,09,20,00,08,12.40
2013,09,20,00,09,12.30
2013,09,20,00,10,12.30
2013,09,20,00,11,12.30
2013,09,20,00,12,12.20
2013,09,20,00,13,12.20
2013,09,20,00,14,12.20
2013,09,20,00,15,12.10
2013,09,20,00,16,12.10
2013,09,20,00,17,12.10
2013,09,20,00,18,12.10
2013,09,20,00,19,12.10
2013,09,20,00,20,12.00
2013,09,20,00,21,12.00
2013,09,20,00,22,12.00
2013,09,20,00,23,12.00
2013,09,20,00,24,11.90
2013,09,20,00,25,11.90
2013,09,20,00,26,11.90
2013,09,20,00,27,11.90
2013,09,20,00,28,11.90
2013,09,20,00,29,11.90
2013,09,20,00,30,11.90
2013,09,20,00,31,11.90
2013,09,20,00,32,11.90
2013,09,20,00,33,11.90
2013,09,20,00,34,11.90
2013,09,20,00,35,11.90
2013,09,20,00,36,11.90
2013,09,20,00,37,11.90
2013,09,20,00,38,12.00
2013,09,20,00,39,12.00
2013,09,20,00,40,12.00
2013,09,20,00,41,12.00
2013,09,20,00,42,12.00
2013,09,20,00,43,12.10
2013,09,20,00,44,12.10
2013,09,20,00,45,12.10
2013,09,20,00,46,12.10
2013,09,20,00,47,12.10
2013,09,20,00,48,12.20
2013,09,20,00,49,12.20
2013,09,20,00,50,12.20
2013,09,20,00,51,12.20
2013,09,20,00,52,12.20
2013,09,20,00,53,12.20
2013,09,20,00,54,12.10
2013,09,20,00,55,12.10
2013,09,20,00,56,12.00
2013,09,20,00,57,12.00
2013,09,20,00,58,12.00
2013,09,20,00,59,12.00
2013,09,20,01,00,11.90
2013,09,20,01,01,11.90
2013,09,20,01,02,11.90
2013,09,20,01,03,11.90
2013,09,20,01,04,11.90
2013,09,20,01,05,11.90
2013,09,20,01,06,11.90
2013,09,20,01,07,11.90
2013,09,20,01,08,11.90
2013,09,20,01,09,11.80
2013,09,20,01,10,11.80
2013,09,20,01,11,11.90
2013,09,20,01,12,11.90
2013,09,20,01,13,11.90
2013,09,20,01,14,11.90
2013,09,20,01,15,11.90
2013,09,20,01,16,11.90
2013,09,20,01,17,11.90
2013,09,20,01,18,11.90
2013,09,20,01,19,11.90
2013,09,20,01,20,11.90
2013,09,20,01,21,11.90
2013,09,20,01,22,11.90
2013,09,20,01,23,11.90
2013,09,20,01,24,11.90
2013,09,20,01,25,11.90
2013,09,20,01,26,11.90
2013,09,20,01,27,11.90
2013,09,20,01,28,11.90
2013,09,20,01,29,11.90
2013,09,20,01,30,11.90
2013,09,20,01,31,11.90
2013,09,20,01,32,11.90
2013,09,20,01,33,11.90
2013,09,20,01,34,11.90
2013,09,20,01,35,11.90
2013,09,20,01,36,11.90
2013,09,20,01,37,11.90
2013,09,20,01,38,11.90
2013,09,20,01,39,11.90
2013,09,20,01,40,11.90
2013,09,20,01,41,11.90
2013,09,20,01,42,11.90
2013,09,20,01,43,11.90
2013,09,20,01,44,11.90
2013,09,20,01,45,11.90
2013,09,20,01,46,11.90
2013,09,20,01,47,11.90
2013,09,20,01,48,11.90
2013,09,20,01,49,11.90
2013,09,20,01,50,11.90
2013,09,20,01,51,11.90
2013,09,20,01,52,11.90
2013,09,20,01,53,11.90
2013,09,20,01,54,11.90
2013,09,20,01,55,11.90
2013,09,20,01,56,11.90
2013,09,20,01,57,11.90
2013,09,20,01,58,11.90
2013,09,20,01,59,11.90
2013,09,20,02,00,11.90
2013,09,20,02,01,11.90
2013,09,20,02,02,11.90
2013,09,20,02,03,11.80
2013,09,20,02,04,11.80
2013,09,20,02,05,11.80
2013,09,20,02,06,11.80
2013,09,20,02,07,11.80
2013,09,20,02,08,11.80
2013,09,20,02,09,11.80
2013,09,20,02,10,11.80
2013,09,20,02,11,11.70
2013,09,20,02,12,11.70
2013,09,20,02,13,11.70
2013,09,20,02,14,11.70
2013,09,20,02,15,11.70
2013,09,20,02,16,11.70
2013,09,20,02,17,11.70
2013,09,20,02,18,11.70
2013,09,20,02,19,11.60
2013,09,20,02,20,11.60
2013,09,20,02,21,11.60
2013,09,20,02,22,11.60
2013,09,20,02,23,11.60
2013,09,20,02,24,11.60
2013,09,20,02,25,11.60
2013,09,20,02,26,11.60
2013,09,20,02,27,11.50
2013,09,20,02,28,11.50
2013,09,20,02,29,11.50
2013,09,20,02,30,11.50
2013,09,20,02,31,11.50
2013,09,20,02,32,11.50
2013,09,20,02,33,11.50
2013,09,20,02,34,11.50
2013,09,20,02,35,11.50
2013,09,20,02,36,11.60
2013,09,20,02,37,11.60
2013,09,20,02,38,11.60
2013,09,20,02,39,11.60
2013,09,20,02,40,11.60
2013,09,20,02,41,11.60
2013,09,20,02,42,11.60
2013,09,20,02,43,11.60
2013,09,20,02,44,11.60
2013,09,20,02,45,11.60
2013,09,20,02,46,11.60
2013,09,20,02,47,11.60
2013,09,20,02,48,11.60
2013,09,20,02,49,11.60
2013,09,20,02,50,11.60
2013,09,20,02,51,11.60
2013,09,20,02,52,11.50
2013,09,20,02,53,11.50
2013,09,20,02,54,11.50
2013,09,20,02,55,11.50
2013,09,20,02,56,11.50
2013,09,20,02,57,11.50
2013,09,20,02,58,11.50
2013,09,20,02,59,11.50
2013,09,20,03,00,11.50
2013,09,20,03,01,11.50
2013,09,20,03,02,11.50
2013,09,20,03,03,11.50
2013,09,20,03,04,11.50
2013,09,20,03,05,11.50
2013,09,20,03,06,11.40
2013,09,20,03,07,11.40
2013,09,20,03,08,11.40
2013,09,20,03,09,11.40
2013,09,20,03,10,11.40
2013,09,20,03,11,11.40
2013,09,20,03,12,11.40
2013,09,20,03,13,11.40
2013,09,20,03,14,11.40
2013,09,20,03,15,11.40
2013,09,20,03,16,11.40
2013,09,20,03,17,11.40
2013,09,20,03,18,11.40
2013,09,20,03,19,11.40
2013,09,20,03,20,11.40
2013,09,20,03,21,11.40
2013,09,20,03,22,11.30
2013,09,20,03,23,11.30
2013,09,20,03,24,11.30
2013,09,20,03,25,11.30
2013,09,20,03,26,11.30
2013,09,20,03,27,11.30
2013,09,20,03,28,11.30
2013,09,20,03,29,11.30
2013,09,20,03,30,11.20
2013,09,20,03,31,11.20
2013,09,20,03,32,11.20
2013,09,20,03,33,11.20
2013,09,20,03,34,11.20
2013,09,20,03,35,11.20
2013,09,20,03,36,11.20
2013,09,20,03,37,11.10
2013,09,20,03,38,11.10
2013,09,20,03,39,11.10
2013,09,20,03,40,11.10
2013,09,20,03,41,11.10
2013,09,20,03,42,11.10
2013,09,20,03,43,11.10
2013,09,20,03,44,11.10
2013,09,20,03,45,11.10
2013,09,20,03,46,11.10
2013,09,20,03,47,11.10
2013,09,20,03,48,11.10
2013,09,20,03,49,11.10
2013,09,20,03,50,11.10
2013,09,20,03,51,11.00
2013,09,20,03,52,11.00
2013,09,20,03,53,11.00
2013,09,20,03,54,11.00
2013,09,20,03,55,11.00
2013,09,20,03,56,11.00
2013,09,20,03,57,11.00
2013,09,20,03,58,10.90
2013,09,20,03,59,10.90
2013,09,20,04,00,10.90
2013,09,20,04,01,10.90
2013,09,20,04,02,10.90
2013,09,20,04,03,10.90
2013,09,20,04,04,10.90
2013,09,20,04,05,10.80
2013,09,20,04,06,10.80
2013,09,20,04,07,10.80
2013,09,20,04,08,10.80
2013,09,20,04,09,10.80
2013,09,20,04,10,10.80
2013,09,20,04,11,10.80
2013,09,20,04,12,10.80
2013,09,20,04,13,10.80
2013,09,20,04,14,10.80
2013,09,20,04,15,10.80
2013,09,20,04,16,10.80
2013,09,20,04,17,10.80
2013,09,20,04,18,10.80
2013,09,20,04,19,10.80
2013,09,20,04,20,10.80
2013,09,20,04,21,10.80
2013,09,20,04,22,10.80
2013,09,20,04,23,10.80
2013,09,20,04,24,10.80
2013,09,20,04,25,10.80
2013,09,20,04,26,10.80
2013,09,20,04,27,10.80
2013,09,20,04,28,10.80
2013,09,20,04,29,10.80
2013,09,20,04,30,10.80
2013,09,20,04,31,10.80
2013,09,20,04,32,10.80
2013,09,20,04,33,10.80
2013,09,20,04,34,10.80
2013,09,20,04,35,10.80
2013,09,20,04,36,10.80
2013,09,20,04,37,10.80
2013,09,20,04,38,10.80
2013,09,20,04,39,10.80
2013,09,20,04,40,10.80
2013,09,20,04,41,10.80
2013,09,20,04,42,10.80
2013,09,20,04,43,10.80
2013,09,20,04,44,10.80
2013,09,20,04,45,10.80
2013,09,20,04,46,10.80
2013,09,20,04,47,10.80
2013,09,20,04,48,10.80
2013,09,20,04,49,10.80
2013,09,20,04,50,10.80
2013,09,20,04,51,10.80
2013,09,20,04,52,10.80
2013,09,20,04,53,10.80
2013,09,20,04,54,10.80
2013,09,20,04,55,10.80
2013,09,20,04,56,10.80
2013,09,20,04,57,10.80
2013,09,20,04,58,10.80
2013,09,20,04,59,10.80
2013,09,20,05,00,10.80
2013,09,20,05,01,10.70
2013,09,20,05,02,10.70
2013,09,20,05,03,10.70
2013,09,20,05,04,10.70
2013,09,20,05,05,10.70
2013,09,20,05,06,10.70
2013,09,20,05,07,10.70
2013,09,20,05,08,10.70
2013,09,20,05,09,10.70
2013,09,20,05,10,10.70
2013,09,20,05,11,10.70
2013,09,20,05,12,10.70
2013,09,20,05,13,10.70
2013,09,20,05,14,10.70
2013,09,20,05,15,10.70
2013,09,20,05,16,10.60
2013,09,20,05,17,10.60
2013,09,20,05,18,10.60
2013,09,20,05,19,10.60
2013,09,20,05,20,10.60
2013,09,20,05,21,10.60
2013,09,20,05,22,10.60
2013,09,20,05,23,10.60
2013,09,20,05,24,10.50
2013,09,20,05,25,10.50
2013,09,20,05,26,10.40
2013,09,20,05,27,10.40
2013,09,20,05,28,10.40
2013,09,20,05,29,10.40
2013,09,20,05,30,10.40
2013,09,20,05,31,10.40
2013,09,20,05,32,10.40
2013,09,20,05,33,10.40
2013,09,20,05,34,10.40
2013,09,20,05,35,10.40
2013,09,20,05,36,10.40
2013,09,20,05,37,10.40
2013,09,20,05,38,10.40
2013,09,20,05,39,10.40
2013,09,20,05,40,10.40
2013,09,20,05,41,10.30
2013,09,20,05,42,10.30
2013,09,20,05,43,10.30
2013,09,20,05,44,10.30
2013,09,20,05,45,10.30
2013,09,20,05,46,10.30
2013,09,20,05,47,10.30
2013,09,20,05,48,10.30
2013,09,20,05,49,10.30
2013,09,20,05,50,10.30
2013,09,20,05,51,10.30
2013,09,20,05,52,10.30
2013,09,20,05,53,10.20
2013,09,20,05,54,10.20
2013,09,20,05,55,10.20
2013,09,20,05,56,10.20
2013,09,20,05,57,10.20
2013,09,20,05,58,10.10
2013,09,20,05,59,10.10
2013,09,20,06,00,10.10
2013,09,20,06,01,10.10
2013,09,20,06,02,10.10
2013,09,20,06,03,10.00
2013,09,20,06,04,10.00
2013,09,20,06,05,10.00
2013,09,20,06,06,10.00
2013,09,20,06,07,10.00
2013,09,20,06,08,10.00
2013,09,20,06,09,10.00
2013,09,20,06,10,10.10
2013,09,20,06,11,10.10
2013,09,20,06,12,10.10
2013,09,20,06,13,10.10
2013,09,20,06,14,10.10
2013,09,20,06,15,10.10
2013,09,20,06,16,10.10
2013,09,20,06,17,10.10
2013,09,20,06,18,10.10
2013,09,20,06,19,10.20
2013,09,20,06,20,10.20
2013,09,20,06,21,10.20
2013,09,20,06,22,10.20
2013,09,20,06,23,10.20
2013,09,20,06,24,10.20
2013,09,20,06,25,10.20
2013,09,20,06,26,10.20
2013,09,20,06,27,10.20
2013,09,20,06,28,10.20
2013,09,20,06,29,10.20
2013,09,20,06,30,10.20
2013,09,20,06,31,10.20
2013,09,20,06,32,10.20
2013,09,20,06,33,10.20
2013,09,20,06,34,10.20
2013,09,20,06,35,10.20
2013,09,20,06,36,10.20
2013,09,20,06,37,10.20
2013,09,20,06,38,10.20
2013,09,20,06,39,10.20
2013,09,20,06,40,10.20
2013,09,20,06,41,10.20
2013,09,20,06,42,10.30
2013,09,20,06,43,10.30
2013,09,20,06,44,10.30
2013,09,20,06,45,10.30
2013,09,20,06,46,10.30
2013,09,20,06,47,10.30
2013,09,20,06,48,10.30
2013,09,20,06,49,10.40
2013,09,20,06,50,10.30
2013,09,20,06,51,10.30
2013,09,20,06,52,10.30
2013,09,20,06,53,10.30
2013,09,20,06,54,10.30
2013,09,20,06,55,10.30
2013,09,20,06,56,10.30
2013,09,20,06,57,10.30
2013,09,20,06,58,10.30
2013,09,20,06,59,10.30
2013,09,20,07,00,10.30
2013,09,20,07,01,10.30
2013,09,20,07,02,10.30
2013,09,20,07,03,10.30
2013,09,20,07,04,10.30
2013,09,20,07,05,10.30
2013,09,20,07,06,10.30
2013,09,20,07,07,10.20
2013,09,20,07,08,10.20
2013,09,20,07,09,10.20
2013,09,20,07,10,10.20
2013,09,20,07,11,10.20
2013,09,20,07,12,10.20
2013,09,20,07,13,10.20
2013,09,20,07,14,10.20
2013,09,20,07,15,10.20
2013,09,20,07,16,10.20
2013,09,20,07,17,10.10
2013,09,20,07,18,10.10
2013,09,20,07,19,10.10
2013,09,20,07,20,10.10
2013,09,20,07,21,10.20
2013,09,20,07,22,10.20
2013,09,20,07,23,10.20
2013,09,20,07,24,10.20
2013,09,20,07,25,10.20
2013,09,20,07,26,10.20
2013,09,20,07,27,10.20
2013,09,20,07,28,10.20
2013,09,20,07,29,10.20
2013,09,20,07,30,10.30
2013,09,20,07,31,10.30
2013,09,20,07,32,10.30
2013,09,20,07,33,10.30
2013,09,20,07,34,10.30
2013,09,20,07,35,10.30
2013,09,20,07,36,10.30
2013,09,20,07,37,10.30
2013,09,20,07,38,10.40
2013,09,20,07,39,10.40
2013,09,20,07,40,10.40
2013,09,20,07,41,10.40
2013,09,20,07,42,10.40
2013,09,20,07,43,10.40
2013,09,20,07,44,10.40
2013,09,20,07,45,10.50
2013,09,20,07,46,10.50
2013,09,20,07,47,10.50
2013,09,20,07,48,10.50
2013,09,20,07,49,10.50
2013,09,20,07,50,10.50
2013,09,20,07,51,10.60
2013,09,20,07,52,10.60
2013,09,20,07,53,10.60
2013,09,20,07,54,10.60
2013,09,20,07,55,10.60
2013,09,20,07,56,10.60
2013,09,20,07,57,10.60
2013,09,20,07,58,10.60
2013,09,20,07,59,10.70
2013,09,20,08,00,10.70
2013,09,20,08,01,10.70
2013,09,20,08,02,10.70
2013,09,20,08,03,10.70
2013,09,20,08,04,10.70
2013,09,20,08,05,10.80
2013,09,20,08,06,10.80
2013,09,20,08,07,10.80
2013,09,20,08,08,10.80
2013,09,20,08,09,10.80
2013,09,20,08,10,10.90
2013,09,20,08,11,10.90
2013,09,20,08,12,10.90
2013,09,20,08,13,10.90
2013,09,20,08,14,11.00
2013,09,20,08,15,11.00
2013,09,20,08,16,11.10
2013,09,20,08,17,11.10
2013,09,20,08,18,11.10
2013,09,20,08,19,11.10
2013,09,20,08,20,11.20
2013,09,20,08,21,11.20
2013,09,20,08,22,11.20
2013,09,20,08,23,11.30
2013,09,20,08,24,11.30
2013,09,20,08,25,11.30
2013,09,20,08,26,11.30
2013,09,20,08,27,11.40
2013,09,20,08,28,11.40
2013,09,20,08,29,11.40
2013,09,20,08,30,11.40
2013,09,20,08,31,11.50
2013,09,20,08,32,11.50
2013,09,20,08,33,11.50
2013,09,20,08,34,11.50
2013,09,20,08,35,11.60
2013,09,20,08,36,11.60
2013,09,20,08,37,11.60
2013,09,20,08,38,11.70
2013,09,20,08,39,11.70
2013,09,20,08,40,11.70
2013,09,20,08,41,11.70
2013,09,20,08,42,11.80
2013,09,20,08,43,11.80
2013,09,20,08,44,11.80
2013,09,20,08,45,11.80
2013,09,20,08,46,11.80
2013,09,20,08,47,11.90
2013,09,20,08,48,11.90
2013,09,20,08,49,11.90
2013,09,20,08,50,11.90
2013,09,20,08,51,12.00
2013,09,20,08,52,12.00
2013,09,20,08,53,12.00
2013,09,20,08,54,12.00
2013,09,20,08,55,12.10
2013,09,20,08,56,12.10
2013,09,20,08,57,12.10
2013,09,20,08,58,12.20
2013,09,20,08,59,12.20
2013,09,20,09,00,12.20
2013,09,20,09,01,12.20
2013,09,20,09,02,12.20
2013,09,20,09,03,12.20
2013,09,20,09,04,12.20
2013,09,20,09,05,12.30
2013,09,20,09,06,12.30
2013,09,20,09,07,12.30
2013,09,20,09,08,12.30
2013,09,20,09,09,12.30
2013,09,20,09,10,12.30
2013,09,20,09,11,12.30
2013,09,20,09,12,12.30
2013,09,20,09,13,12.30
2013,09,20,09,14,12.30
2013,09,20,09,15,12.30
2013,09,20,09,16,12.30
2013,09,20,09,17,12.40
2013,09,20,09,18,12.40
2013,09,20,09,19,12.40
2013,09,20,09,20,12.40
2013,09,20,09,21,12.40
2013,09,20,09,22,12.40
2013,09,20,09,23,12.40
2013,09,20,09,24,12.50
2013,09,20,09,25,12.50
2013,09,20,09,26,12.50
2013,09,20,09,27,12.60
2013,09,20,09,28,12.60
2013,09,20,09,29,12.60
2013,09,20,09,30,12.70
2013,09,20,09,31,12.70
2013,09,20,09,32,12.70
2013,09,20,09,33,12.80
2013,09,20,09,34,12.80
2013,09,20,09,35,12.80
2013,09,20,09,36,12.80
2013,09,20,09,37,12.90
2013,09,20,09,38,12.90
2013,09,20,09,39,13.00
2013,09,20,09,40,13.00
2013,09,20,09,41,13.00
2013,09,20,09,42,13.10
2013,09,20,09,43,13.10
2013,09,20,09,44,13.20
2013,09,20,09,45,13.20
2013,09,20,09,46,13.20
2013,09,20,09,47,13.30
2013,09,20,09,48,13.30
2013,09,20,09,49,13.30
2013,09,20,09,50,13.30
2013,09,20,09,51,13.30
2013,09,20,09,52,13.40
2013,09,20,09,53,13.40
2013,09,20,09,54,13.40
2013,09,20,09,55,13.40
2013,09,20,09,56,13.50
2013,09,20,09,57,13.50
2013,09,20,09,58,13.60
2013,09,20,09,59,13.60
2013,09,20,10,00,13.60
2013,09,20,10,01,13.70
2013,09,20,10,02,13.70
2013,09,20,10,03,13.70
2013,09,20,10,04,13.80
2013,09,20,10,05,13.80
2013,09,20,10,06,13.80
2013,09,20,10,07,13.80
2013,09,20,10,08,13.80
2013,09,20,10,09,13.90
2013,09,20,10,10,13.90
2013,09,20,10,11,13.90
2013,09,20,10,12,14.00
2013,09,20,10,13,14.00
2013,09,20,10,14,14.00
2013,09,20,10,15,14.00
2013,09,20,10,16,14.10
2013,09,20,10,17,14.10
2013,09,20,10,18,14.10
2013,09,20,10,19,14.10
2013,09,20,10,20,14.20
2013,09,20,10,21,14.20
2013,09,20,10,22,14.20
2013,09,20,10,23,14.20
2013,09,20,10,24,14.20
2013,09,20,10,25,14.20
2013,09,20,10,26,14.20
2013,09,20,10,27,14.20
2013,09,20,10,28,14.20
2013,09,20,10,29,14.20
2013,09,20,10,30,14.30
2013,09,20,10,31,14.30
2013,09,20,10,32,14.30
2013,09,20,10,33,14.30
2013,09,20,10,34,14.30
2013,09,20,10,35,14.30
2013,09,20,10,36,14.30
2013,09,20,10,37,14.30
2013,09,20,10,38,14.30
2013,09,20,10,39,14.40
2013,09,20,10,40,14.40
2013,09,20,10,41,14.50
2013,09,20,10,42,14.50
2013,09,20,10,43,14.60
2013,09,20,10,44,14.60
2013,09,20,10,45,14.60
2013,09,20,10,46,14.60
2013,09,20,10,47,14.70
2013,09,20,10,48,14.70
2013,09,20,10,49,14.70
2013,09,20,10,50,14.80
2013,09,20,10,51,14.80
2013,09,20,10,52,14.90
2013,09,20,10,53,14.90
2013,09,20,10,54,14.90
2013,09,20,10,55,14.90
2013,09,20,10,56,14.90
2013,09,20,10,57,14.90
2013,09,20,10,58,14.90
2013,09,20,10,59,14.90
2013,09,20,11,00,15.00
2013,09,20,11,01,15.00
2013,09,20,11,02,15.10
2013,09,20,11,03,15.10
2013,09,20,11,04,15.10
2013,09,20,11,05,15.20
2013,09,20,11,06,15.20
2013,09,20,11,07,15.20
2013,09,20,11,08,15.20
2013,09,20,11,09,15.20
2013,09,20,11,10,15.20
2013,09,20,11,11,15.30
2013,09,20,11,12,15.30
2013,09,20,11,13,15.30
2013,09,20,11,14,15.40
2013,09,20,11,15,15.40
2013,09,20,11,16,15.40
2013,09,20,11,17,15.40
2013,09,20,11,18,15.40
2013,09,20,11,19,15.40
2013,09,20,11,20,15.40
2013,09,20,11,21,15.40
2013,09,20,11,22,15.40
2013,09,20,11,23,15.30
2013,09,20,11,24,15.30
2013,09,20,11,25,15.30
2013,09,20,11,26,15.30
2013,09,20,11,27,15.30
2013,09,20,11,28,15.30
2013,09,20,11,29,15.30
2013,09,20,11,30,15.30
2013,09,20,11,31,15.30
2013,09,20,11,32,15.30
2013,09,20,11,33,15.20
2013,09,20,11,34,15.20
2013,09,20,11,35,15.20
2013,09,20,11,36,15.30
2013,09,20,11,37,15.30
2013,09,20,11,38,15.40
2013,09,20,11,39,15.40
2013,09,20,11,40,15.40
2013,09,20,11,41,15.40
2013,09,20,11,42,15.40
2013,09,20,11,43,15.40
2013,09,20,11,44,15.40
2013,09,20,11,45,15.40
2013,09,20,11,46,15.50
2013,09,20,11,47,15.60
2013,09,20,11,48,15.60
2013,09,20,11,49,15.60
2013,09,20,11,50,15.70
2013,09,20,11,51,15.70
2013,09,20,11,52,15.70
2013,09,20,11,53,15.70
2013,09,20,11,54,15.80
2013,09,20,11,55,15.80
2013,09,20,11,56,15.80
2013,09,20,11,57,15.90
2013,09,20,11,58,16.00
2013,09,20,11,59,16.00
2013,09,20,12,00,16.10
2013,09,20,12,01,16.10
2013,09,20,12,02,16.10
2013,09,20,12,03,16.10
2013,09,20,12,04,16.10
2013,09,20,12,05,16.10
2013,09,20,12,06,16.10
2013,09,20,12,07,16.10
2013,09,20,12,08,16.20
2013,09,20,12,09,16.20
2013,09,20,12,10,16.30
2013,09,20,12,11,16.30
2013,09,20,12,12,16.40
2013,09,20,12,13,16.40
2013,09,20,12,14,16.40
2013,09,20,12,15,16.50
2013,09,20,12,16,16.50
2013,09,20,12,17,16.50
2013,09,20,12,18,16.40
2013,09,20,12,19,16.40
2013,09,20,12,20,16.40
2013,09,20,12,21,16.40
2013,09,20,12,22,16.40
2013,09,20,12,23,16.50
2013,09,20,12,24,16.50
2013,09,20,12,25,16.60
2013,09,20,12,26,16.50
2013,09,20,12,27,16.50
2013,09,20,12,28,16.50
2013,09,20,12,29,16.40
2013,09,20,12,30,16.40
2013,09,20,12,31,16.30
2013,09,20,12,32,16.30
2013,09,20,12,33,16.20
2013,09,20,12,34,16.10
2013,09,20,12,35,15.90
2013,09,20,12,36,15.70
2013,09,20,12,37,15.50
2013,09,20,12,38,15.40
2013,09,20,12,39,15.30
2013,09,20,12,40,15.20
2013,09,20,12,41,15.10
2013,09,20,12,42,15.10
2013,09,20,12,43,15.10
2013,09,20,12,44,15.00
2013,09,20,12,45,15.00
2013,09,20,12,46,14.90
2013,09,20,12,47,14.90
2013,09,20,12,48,15.00
2013,09,20,12,49,15.00
2013,09,20,12,50,15.10
2013,09,20,12,51,15.10
2013,09,20,12,52,15.20
2013,09,20,12,53,15.20
2013,09,20,12,54,15.20
2013,09,20,12,55,15.10
2013,09,20,12,56,15.10
2013,09,20,12,57,15.10
2013,09,20,12,58,15.10
2013,09,20,12,59,15.10
2013,09,20,13,00,15.10
2013,09,20,13,01,15.20
2013,09,20,13,02,15.20
2013,09,20,13,03,15.20
2013,09,20,13,04,15.20
2013,09,20,13,05,15.20
2013,09,20,13,06,15.20
2013,09,20,13,07,15.20
2013,09,20,13,08,15.20
2013,09,20,13,09,15.20
2013,09,20,13,10,15.30
2013,09,20,13,11,15.30
2013,09,20,13,12,15.30
2013,09,20,13,13,15.40
2013,09,20,13,14,15.40
2013,09,20,13,15,15.50
2013,09,20,13,16,15.50
2013,09,20,13,17,15.50
2013,09,20,13,18,15.40
2013,09,20,13,19,15.30
2013,09,20,13,20,15.20
2013,09,20,13,21,15.20
2013,09,20,13,22,15.10
2013,09,20,13,23,15.10
2013,09,20,13,24,15.10
2013,09,20,13,25,15.10
2013,09,20,13,26,15.10
2013,09,20,13,27,15.10
2013,09,20,13,28,15.10
2013,09,20,13,29,15.10
2013,09,20,13,30,15.10
2013,09,20,13,31,15.10
2013,09,20,13,32,15.10
2013,09,20,13,33,15.10
2013,09,20,13,34,15.10
2013,09,20,13,35,15.10
2013,09,20,13,36,15.20
2013,09,20,13,37,15.20
2013,09,20,13,38,15.20
2013,09,20,13,39,15.20
2013,09,20,13,40,15.30
2013,09,20,13,41,15.30
2013,09,20,13,42,15.30
2013,09,20,13,43,15.40
2013,09,20,13,44,15.40
2013,09,20,13,45,15.50
2013,09,20,13,46,15.50
2013,09,20,13,47,15.50
2013,09,20,13,48,15.60
2013,09,20,13,49,15.60
2013,09,20,13,50,15.60
2013,09,20,13,51,15.60
2013,09,20,13,52,15.60
2013,09,20,13,53,15.70
2013,09,20,13,54,15.60
2013,09,20,13,55,15.60
2013,09,20,13,56,15.50
2013,09,20,13,57,15.40
2013,09,20,13,58,15.30
2013,09,20,13,59,15.20
2013,09,20,14,00,15.10
2013,09,20,14,01,15.00
2013,09,20,14,02,14.90
2013,09,20,14,03,14.90
2013,09,20,14,04,14.80
2013,09,20,14,05,14.80
2013,09,20,14,06,14.80
2013,09,20,14,07,14.80
2013,09,20,14,08,14.70
2013,09,20,14,09,14.70
2013,09,20,14,10,14.60
2013,09,20,14,11,14.60
2013,09,20,14,12,14.60
2013,09,20,14,13,14.50
2013,09,20,14,14,14.60
2013,09,20,14,15,14.60
2013,09,20,14,16,14.70
2013,09,20,14,17,14.70
2013,09,20,14,18,14.70
2013,09,20,14,19,14.60
2013,09,20,14,20,14.60
2013,09,20,14,21,14.60
2013,09,20,14,22,14.70
2013,09,20,14,23,14.70
2013,09,20,14,24,14.80
2013,09,20,14,25,14.80
2013,09,20,14,26,14.90
2013,09,20,14,27,14.90
2013,09,20,14,28,14.90
2013,09,20,14,29,14.90
2013,09,20,14,30,14.90
2013,09,20,14,31,14.90
2013,09,20,14,32,14.90
2013,09,20,14,33,14.90
2013,09,20,14,34,14.90
2013,09,20,14,35,14.90
2013,09,20,14,36,15.00
2013,09,20,14,37,15.00
2013,09,20,14,38,15.00
2013,09,20,14,39,15.10
2013,09,20,14,40,15.10
2013,09,20,14,41,15.10
2013,09,20,14,42,15.20
2013,09,20,14,43,15.20
2013,09,20,14,44,15.20
2013,09,20,14,45,15.20
2013,09,20,14,46,15.30
2013,09,20,14,47,15.30
2013,09,20,14,48,15.30
2013,09,20,14,49,15.30
2013,09,20,14,50,15.30
2013,09,20,14,51,15.30
2013,09,20,14,52,15.30
2013,09,20,14,53,15.30
2013,09,20,14,54,15.30
2013,09,20,14,55,15.40
2013,09,20,14,56,15.40
2013,09,20,14,57,15.50
2013,09,20,14,58,15.50
2013,09,20,14,59,15.50
2013,09,20,15,00,15.60
2013,09,20,15,01,15.60
2013,09,20,15,02,15.70
2013,09,20,15,03,15.80
2013,09,20,15,04,15.80
2013,09,20,15,05,15.90
2013,09,20,15,06,15.90
2013,09,20,15,07,16.00
2013,09,20,15,08,16.00
2013,09,20,15,09,16.10
2013,09,20,15,10,16.10
2013,09,20,15,11,16.10
2013,09,20,15,12,16.20
2013,09,20,15,13,16.20
2013,09,20,15,14,16.20
2013,09,20,15,15,16.20
2013,09,20,15,16,16.20
2013,09,20,15,17,16.20
2013,09,20,15,18,16.20
2013,09,20,15,19,16.20
2013,09,20,15,20,16.20
2013,09,20,15,21,16.20
2013,09,20,15,22,16.20
2013,09,20,15,23,16.20
2013,09,20,15,24,16.30
2013,09,20,15,25,16.30
2013,09,20,15,26,16.30
2013,09,20,15,27,16.30
2013,09,20,15,28,16.40
2013,09,20,15,29,16.40
2013,09,20,15,30,16.40
2013,09,20,15,31,16.50
2013,09,20,15,32,16.50
2013,09,20,15,33,16.60
2013,09,20,15,34,16.60
2013,09,20,15,35,16.60
2013,09,20,15,36,16.70
2013,09,20,15,37,16.80
2013,09,20,15,38,16.90
2013,09,20,15,39,17.00
2013,09,20,15,40,17.10
2013,09,20,15,41,17.20
2013,09,20,15,42,17.30
2013,09,20,15,43,17.40
2013,09,20,15,44,17.40
2013,09,20,15,45,17.50
2013,09,20,15,46,17.50
2013,09,20,15,47,17.60
2013,09,20,15,48,17.60
2013,09,20,15,49,17.70
2013,09,20,15,50,17.70
2013,09,20,15,51,17.80
2013,09,20,15,52,17.80
2013,09,20,15,53,17.80
2013,09,20,15,54,17.90
2013,09,20,15,55,17.90
2013,09,20,15,56,17.90
2013,09,20,15,57,17.90
2013,09,20,15,58,18.00
2013,09,20,15,59,18.00
2013,09,20,16,00,18.00
2013,09,20,16,01,18.00
2013,09,20,16,02,18.00
2013,09,20,16,03,17.90
2013,09,20,16,04,17.90
2013,09,20,16,05,17.90
2013,09,20,16,06,17.80
2013,09,20,16,07,17.80
2013,09,20,16,08,17.70
2013,09,20,16,09,17.70
2013,09,20,16,10,17.70
2013,09,20,16,11,17.70
2013,09,20,16,12,17.60
2013,09,20,16,13,17.50
2013,09,20,16,14,17.40
2013,09,20,16,15,17.30
2013,09,20,16,16,17.20
2013,09,20,16,17,17.20
2013,09,20,16,18,17.10
2013,09,20,16,19,17.00
2013,09,20,16,20,16.50
2013,09,20,16,21,16.10
2013,09,20,16,22,15.90
2013,09,20,16,23,15.70
2013,09,20,16,24,15.50
2013,09,20,16,25,15.50
2013,09,20,16,26,15.40
2013,09,20,16,27,15.30
2013,09,20,16,28,15.20
2013,09,20,16,29,15.20
2013,09,20,16,30,15.10
2013,09,20,16,31,15.00
2013,09,20,16,32,14.90
2013,09,20,16,33,14.70
2013,09,20,16,34,14.60
2013,09,20,16,35,14.50
2013,09,20,16,36,14.40
2013,09,20,16,37,14.30
2013,09,20,16,38,14.30
2013,09,20,16,39,14.30
2013,09,20,16,40,14.30
2013,09,20,16,41,14.30
2013,09,20,16,42,14.30
2013,09,20,16,43,14.40
2013,09,20,16,44,14.40
2013,09,20,16,45,14.50
2013,09,20,16,46,14.50
2013,09,20,16,47,14.60
2013,09,20,16,48,14.80
2013,09,20,16,49,14.80
2013,09,20,16,50,14.90
2013,09,20,16,51,15.00
2013,09,20,16,52,15.10
2013,09,20,16,53,15.10
2013,09,20,16,54,15.20
2013,09,20,16,55,15.20
2013,09,20,16,56,15.30
2013,09,20,16,57,15.40
2013,09,20,16,58,15.50
2013,09,20,16,59,15.60
2013,09,20,17,00,15.70
2013,09,20,17,01,15.80
2013,09,20,17,02,15.90
2013,09,20,17,03,16.00
2013,09,20,17,04,16.10
2013,09,20,17,05,16.10
2013,09,20,17,06,16.20
2013,09,20,17,07,16.30
2013,09,20,17,08,16.30
2013,09,20,17,09,16.40
2013,09,20,17,10,16.40
2013,09,20,17,11,16.50
2013,09,20,17,12,16.50
2013,09,20,17,13,16.60
2013,09,20,17,14,16.70
2013,09,20,17,15,16.70
2013,09,20,17,16,16.80
2013,09,20,17,17,16.80
2013,09,20,17,18,16.80
2013,09,20,17,19,16.80